1534564800.87,18310,20.13,74498.8,5.79,-7.01,-5.61,0,*79
1534564802.06,18311,20.13,74502.5,5.79,-6.13,-4.53,0,*7A
1534564803.28,18312,20.13,74506.5,5.79,-5.19,-3.47,0,*72
1534564804.52,18313,20.13,74506.3,5.77,-3.95,-2.71,0,*7B
1534564805.73,18314,20.13,74504.5,5.77,-2.95,-2.27,0,*7E
1534564806.97,18315,20.13,74500.0,5.77,-2.03,-2.15,0,*71
1534564808.2,18316,20.13,74506.5,5.77,-1.55,-2.03,0,*75
1534564809.41,18317,20.13,74506.3,5.77,-1.33,-2.15,0,*73
1534564810.63,18318,20.13,74502.0,5.79,-1.29,-2.63,0,*78
1534564811.8,18319,20.13,74504.8,5.79,-1.75,-3.11,0,*74
1534564812.98,18320,20.13,74506.5,5.79,-2.27,-3.35,0,*7C
1534564814.21,18321,20.13,74506.3,5.77,-2.71,-3.39,0,*7C
1534564815.45,18322,20.13,74504.3,5.77,-3.31,-2.67,0,*70
1534564816.66,18323,20.13,74504.3,5.77,-2.91,-1.63,0,*7D
1534564817.85,18324,20.13,74502.0,5.75,-2.23,-0.85,0,*48
1534564819.06,18325,20.13,74502.3,5.77,-1.29,-0.19,0,*47
1534564820.28,18326,20.13,74504.0,5.77,-0.45,0.29,0,*51
1534564821.51,18327,20.13,74504.5,5.77,0.21,0.79,0,*7A
1534564822.75,18328,20.13,74500.5,5.77,0.83,1.25,0,*45
1534564823.97,18329,20.13,74500.5,5.79,1.37,1.43,0,*74
1534564825.16,18330,20.13,74504.3,5.75,1.63,1.41,0,*73
1534564826.41,18331,20.13,74504.8,5.77,1.97,1.29,0,*75
1534564827.63,18332,20.13,74504.8,5.77,2.27,1.13,0,*77
1534564828.87,18333,20.13,74506.3,5.77,2.25,0.79,0,*49
1534564830.1,18334,20.13,74502.5,5.77,2.13,0.41,0,*40
1534564831.3,18335,20.13,74504.3,5.79,1.79,0.21,0,*46
1534564832.52,18336,20.13,74504.3,5.79,1.47,0.47,0,*48
1534564833.77,18337,20.13,74502.8,5.77,1.13,0.79,0,*4B
1534564835.0,18338,20.13,74506.0,5.77,0.91,0.95,0,*7D
1534564836.24,18339,20.13,74504.0,5.77,0.83,1.33,0,*42
1534564837.45,18340,20.13,74506.5,5.75,0.63,1.63,0,*45
1534564838.69,18341,20.13,74504.0,5.77,0.95,2.39,0,*43
1534564839.94,18342,20.13,74502.3,5.77,1.67,3.41,0,*72
1534564841.19,18343,20.13,74502.3,5.77,2.39,3.71,0,*78
1534564842.41,18344,20.13,74504.8,5.77,3.19,3.81,0,*73
1534564843.63,18345,20.13,74506.3,5.77,3.59,3.79,0,*71
1534564844.85,18346,20.13,74504.5,5.77,3.81,3.71,0,*7F
1534564846.07,18347,20.13,74500.8,5.77,3.81,3.53,0,*7E
1534564847.24,18348,20.13,74502.0,5.79,3.63,3.25,0,*72
1534564848.48,18349,20.13,74504.8,5.81,3.45,3.23,0,*76
1534564849.7,18350,20.13,74504.8,5.79,3.45,3.23,0,*79
1534564850.92,18351,20.13,74504.0,5.79,3.23,3.15,0,*7D
1534564852.15,18352,20.13,74506.5,5.79,3.03,3.03,0,*7B
1534564853.38,18353,20.13,74502.3,5.79,2.81,3.03,0,*71
1534564854.58,18354,20.13,74500.3,5.79,2.61,3.03,0,*78
1534564855.8,18355,20.13,74500.0,5.79,2.01,2.77,0,*7D
1534564857.05,18356,20.13,74496.5,5.81,1.43,2.77,0,*7C
1534564858.26,18357,20.13,74498.5,5.79,0.75,2.77,0,*4E
1534564859.47,18358,20.13,74496.5,5.81,0.01,3.03,0,*77
1534564860.69,18359,20.13,74502.3,5.81,-0.41,3.37,0,*68
1534564861.92,18360,20.13,74502.3,5.81,-0.27,3.81,0,*6F
1534564863.1,18361,20.13,74496.5,5.79,0.33,4.07,0,*48
1534564864.33,18362,20.13,74502.3,5.81,1.17,4.33,0,*7C
1534564865.53,18363,20.13,74500.3,5.79,1.47,4.41,0,*7A
1534564866.73,18364,20.13,74500.3,5.81,1.79,4.57,0,*70
1534564867.98,18365,20.13,74498.8,5.81,2.21,4.67,0,*7C
1534564869.22,18366,20.13,74498.5,5.81,2.73,4.75,0,*7B
1534564870.48,18367,20.13,74498.3,5.81,3.15,4.75,0,*7B
1534564871.7,18368,20.13,74502.0,5.81,3.55,4.67,0,*73
1534564872.95,18369,20.13,74500.8,5.81,3.97,4.75,0,*7F
1534564874.21,18370,20.13,74504.0,5.81,4.31,4.75,0,*7C
1534564875.43,18371,20.13,74504.3,5.81,4.41,4.79,0,*76
1534564876.6,18372,20.13,74506.8,5.79,4.57,4.85,0,*76
1534564877.8,18373,20.13,74500.5,5.81,4.57,4.85,0,*70
1534564879.02,18374,20.13,74500.3,5.81,4.63,4.85,0,*70
1534564880.22,18375,20.13,74502.3,5.79,4.57,5.01,0,*7C
1534564881.45,18376,20.13,74502.5,5.81,4.63,5.07,0,*79
1534564882.65,18377,20.13,74500.0,5.79,4.75,5.07,0,*78
1534564883.85,18378,20.13,74498.8,5.81,4.85,5.15,0,*7C
1534564885.05,18379,20.13,74496.8,5.81,5.07,5.23,0,*73
1534564886.25,18380,20.13,74498.0,5.79,5.07,5.27,0,*76
1534564887.47,18381,20.13,74500.0,5.81,5.15,5.27,0,*73
1534564888.69,18382,20.13,74502.5,5.81,5.23,5.27,0,*75
1534564889.88,18383,20.13,74500.0,5.83,5.27,5.29,0,*7C
1534564891.06,18384,20.13,74496.5,5.85,5.29,5.29,0,*73
1534564892.23,18385,20.13,74498.8,5.83,5.29,5.37,0,*7B
1534564893.42,18386,20.13,74502.3,5.83,5.27,5.37,0,*76
1534564894.63,18387,20.13,74502.3,5.85,5.27,5.29,0,*7E
1534564895.82,18388,20.13,74500.3,5.83,5.27,5.29,0,*77
1534564897.06,18389,20.13,74500.0,5.81,5.27,5.27,0,*7A
1534564898.22,18390,20.13,74496.0,5.83,5.29,5.29,0,*70
1534564899.42,18391,20.13,74502.0,5.85,5.37,5.37,0,*77
1534564900.6,18392,20.13,74498.8,5.85,5.29,5.37,0,*7B
1534564901.79,18393,20.13,74498.8,5.85,5.37,5.37,0,*75
1534564902.98,18394,20.13,74496.5,5.83,5.27,5.29,0,*7A
1534564904.22,18395,20.13,74496.5,5.85,5.27,5.27,0,*73
1534564905.42,18396,20.13,74498.3,5.85,5.15,5.19,0,*7C
1534564906.59,18397,20.13,74492.8,5.83,5.19,5.29,0,*74
1534564907.79,18398,20.13,74492.0,5.83,5.29,5.27,0,*76
1534564909.0,18399,20.13,74490.8,5.85,5.29,5.27,0,*71
1534564910.19,18400,20.13,74488.0,5.85,5.29,5.29,0,*78
1534564911.41,18401,20.13,74484.0,5.85,5.37,5.27,0,*78
1534564912.62,18402,20.13,74482.5,5.85,5.27,5.19,0,*77
1534564913.82,18403,20.13,74484.8,5.85,5.19,5.15,0,*77
1534564915.0,18404,20.13,74486.5,5.83,5.15,5.15,0,*7A
1534564916.17,18405,20.13,74486.5,5.83,5.15,5.15,0,*7B
1534564917.37,18406,20.13,74494.3,5.85,5.15,5.15,0,*7E
1534564918.55,18407,20.13,74492.3,5.83,5.19,5.15,0,*75
1534564919.74,18408,20.13,74492.8,5.85,5.15,5.15,0,*70
1534564920.97,18409,20.13,74496.5,5.85,5.05,5.11,0,*74
1534564922.2,18410,20.13,74494.3,5.85,4.93,5.11,0,*72
1534564923.41,18411,20.13,74496.8,5.83,4.93,5.11,0,*75
1534564924.62,18412,20.13,74496.5,5.83,4.93,5.11,0,*76
1534564925.85,18413,20.13,74496.5,5.83,4.93,5.05,0,*72
1534564927.07,18414,20.13,74502.3,5.85,4.81,5.01,0,*74
1534564928.3,18415,20.13,74502.3,5.83,4.93,5.05,0,*74
1534564929.53,18416,20.13,74502.5,5.85,5.05,5.11,0,*7A
1534564930.73,18417,20.13,74504.8,5.83,5.05,5.15,0,*79
1534564931.96,18418,20.13,74504.0,5.85,5.05,5.15,0,*70
1534564933.14,18419,20.13,74500.0,5.83,5.11,5.15,0,*72
1534564934.34,18420,20.13,74500.8,5.85,5.11,5.15,0,*7E
1534564935.54,18421,20.13,74504.0,5.83,5.05,5.15,0,*7C
1534564936.74,18422,20.13,74504.0,5.85,5.11,5.15,0,*7C
1534564937.94,18423,20.13,74502.5,5.85,5.11,5.15,0,*7D
1534564939.16,18424,20.13,74502.0,5.85,5.05,5.11,0,*7B
1534564940.39,18425,20.13,74500.0,5.85,5.05,5.15,0,*7E
1534564941.6,18426,20.13,74504.0,5.89,5.15,5.19,0,*7C
1534564942.81,18427,20.13,74502.8,5.89,5.15,5.19,0,*7D
1534564944.02,18428,20.13,74504.8,5.89,5.07,5.19,0,*71
1534564945.23,18429,20.13,74506.0,5.89,5.07,5.19,0,*70
1534564946.44,18430,20.13,74500.0,5.89,5.15,5.23,0,*72
1534564947.65,18431,20.13,74500.0,5.89,5.15,5.23,0,*73
1534564948.86,18432,20.13,74500.8,5.89,5.19,5.19,0,*75
1534564950.08,18433,20.13,74502.5,5.89,5.19,5.23,0,*7D
1534564951.29,18434,20.13,74502.3,5.89,5.19,5.29,0,*70
1534564952.48,18435,20.13,74502.3,5.91,5.23,5.23,0,*7B
1534564953.68,18436,20.13,74504.3,5.89,5.23,5.29,0,*7B
1534564954.87,18437,20.13,74506.8,5.91,5.19,5.29,0,*7A
1534564956.08,18438,20.13,74504.3,5.89,5.19,5.37,0,*73
1534564957.28,18439,20.13,74502.5,5.89,5.23,5.29,0,*74
1534564958.47,18440,20.13,74502.3,5.91,5.33,5.33,0,*79
1534564959.67,18441,20.13,74504.0,5.89,5.29,5.29,0,*71
1534564960.87,18442,20.13,74498.3,5.89,5.29,5.33,0,*79
1534564962.05,18443,20.13,74500.5,5.91,5.33,5.33,0,*7A
1534564963.24,18444,20.13,74500.8,5.91,5.33,5.33,0,*7D
1534564964.44,18445,20.13,74498.8,5.89,5.29,5.19,0,*76
1534564965.65,18446,20.13,74496.0,5.91,5.33,5.27,0,*7A
1534564966.87,18447,20.13,74502.5,5.89,5.19,5.07,0,*78
1534564968.09,18448,20.13,74506.5,5.91,5.19,4.97,0,*76
1534564969.27,18449,20.13,74502.3,5.91,5.23,4.89,0,*71
1534564970.5,18450,20.13,74506.3,5.89,5.15,4.75,0,*76
1534564971.73,18451,20.13,74502.3,5.89,5.05,4.53,0,*72
1534564972.95,18452,20.13,74500.8,5.91,5.01,4.57,0,*78
1534564974.16,18453,20.13,74502.5,5.91,4.85,4.31,0,*74
1534564975.37,18454,20.13,74500.3,5.91,4.63,4.15,0,*7D
1534564976.58,18455,20.13,74496.5,5.91,4.53,4.05,0,*7E
1534564977.77,18456,20.13,74498.8,5.91,4.27,3.93,0,*76
1534564979.0,18457,20.13,74500.5,5.89,4.01,3.81,0,*79
1534564980.23,18458,20.13,74502.8,5.89,3.93,3.79,0,*7D
1534564981.44,18459,20.13,74502.8,5.91,3.93,3.71,0,*7D
1534564982.66,18460,20.13,74502.0,5.91,3.85,3.45,0,*77
1534564983.87,18461,20.13,74504.3,5.91,3.59,3.15,0,*72
1534564985.1,18462,20.13,74506.5,5.91,3.37,2.55,0,*7C
1534564986.28,18463,20.13,74502.8,5.91,2.99,2.31,0,*7A
1534564987.46,18464,20.13,74500.8,5.91,2.91,2.27,0,*72
1534564988.7,18465,20.13,74502.3,5.91,3.11,2.13,0,*7D
1534564989.93,18466,20.13,74502.0,5.89,2.99,1.43,0,*70
1534564991.13,18467,20.13,74498.5,5.91,2.27,0.47,0,*48
1534564992.32,18468,20.13,74500.0,5.91,1.41,-0.29,0,*61
1534564993.55,18469,20.13,74502.5,5.89,0.55,-0.81,0,*5F
1534564994.74,18470,20.13,74502.5,5.91,-0.19,-1.51,0,*47
1534564995.95,18471,20.13,74504.8,5.89,-2.27,-2.27,0,*72
1534564997.14,18472,20.13,74502.3,5.91,-3.23,-2.15,0,*7C
1534564998.35,18473,20.13,74500.5,5.91,-3.91,-1.17,0,*75
1534564999.53,18474,20.13,74498.0,5.91,-2.91,0.09,0,*50
1534565000.73,18475,20.13,74496.8,5.91,-1.63,0.95,0,*6A
1534565001.96,18476,20.13,74498.8,5.91,0.25,2.13,0,*4B
1534565003.17,18477,20.13,74504.3,5.91,1.41,2.55,0,*7B
1534565004.38,18478,20.13,74506.3,5.91,1.79,2.51,0,*7B
1534565005.58,18479,20.13,74502.8,5.91,1.79,2.61,0,*79
1534565006.81,18480,20.13,74496.8,5.93,1.89,2.65,0,*76
1534565008.05,18481,20.13,74498.8,5.91,2.13,2.89,0,*77
1534565009.26,18482,20.13,74498.3,5.91,2.61,3.11,0,*71
1534565010.5,18483,20.13,74500.0,5.91,3.11,3.03,0,*75
1534565011.68,18484,20.13,74500.3,5.91,3.55,2.27,0,*75
1534565012.89,18485,20.13,74494.5,5.91,3.59,1.21,0,*7D
1534565014.09,18486,20.13,74490.8,5.91,3.37,-0.29,0,*62
1534565015.31,18487,20.13,74488.3,5.91,2.55,-2.15,0,*5B
1534565016.54,18488,20.13,74492.0,5.91,1.67,-3.43,0,*54
1534565017.76,18489,20.13,74496.0,5.91,0.83,-4.57,0,*6C
1534565019.0,18490,20.13,74496.3,5.93,-0.11,-5.69,0,*4C
1534565020.22,18491,20.13,74496.0,5.91,-1.29,-7.05,0,*7D
1534565021.47,18492,20.13,74498.0,5.93,-2.47,-7.15,0,*76
1534565022.69,18493,20.13,74500.0,5.91,-3.67,-8.93,0,*77
1534565023.94,18494,20.13,74500.3,5.89,-5.89,-10.57,0,*4E
1534565025.2,18495,20.13,74498.3,5.91,-7.95,-10.67,0,*4A
1534565026.44,18496,20.13,74498.8,5.89,-9.37,-9.89,0,*7E
1534565027.65,18497,20.13,74502.8,5.91,-10.19,-9.05,0,*46
1534565028.89,18498,20.13,74502.0,5.89,-10.49,-8.03,0,*42
1534565030.13,18499,20.13,74502.8,5.89,-10.85,-6.93,0,*44
1534565031.35,18500,20.13,74506.0,5.89,-10.49,-5.47,0,*4F
1534565032.56,18501,20.13,74504.3,5.89,-9.93,-4.17,0,*75
1534565033.78,18502,20.13,74502.0,5.89,-8.93,-2.79,0,*79
1534565035.0,18503,20.13,74500.8,5.89,-7.87,-1.17,0,*79
1534565036.22,18504,20.13,74500.3,5.85,-6.59,0.51,0,*6E
1534565037.48,18505,20.13,74502.3,5.89,-4.81,2.09,0,*5B
1534565038.72,18506,20.13,74500.0,5.85,-2.59,3.37,0,*5B
1534565039.93,18507,20.13,74500.8,5.89,-0.77,3.63,0,*69
1534565041.15,18508,20.13,74498.8,5.85,0.91,3.89,0,*4B
1534565042.39,18509,20.13,74502.3,5.85,2.09,4.01,0,*7E
1534565043.59,18510,20.13,74500.5,5.85,2.91,4.33,0,*76
1534565044.8,18511,20.13,74500.8,5.83,3.41,4.33,0,*7D
1534565046.02,18512,20.13,74500.8,5.85,3.79,4.45,0,*72
1534565047.21,18513,20.13,74500.3,5.83,4.11,4.57,0,*7F
1534565048.41,18514,20.13,74502.5,5.83,4.45,4.71,0,*7D
1534565049.61,18515,20.13,74500.8,5.83,4.67,4.89,0,*7B
1534565050.81,18516,20.13,74496.8,5.83,4.79,4.89,0,*77
1534565052.01,18517,20.13,74500.5,5.83,4.81,5.01,0,*70
1534565053.24,18518,20.13,74496.5,5.85,4.89,4.93,0,*7B
1534565054.47,18519,20.13,74502.5,5.85,5.01,5.11,0,*70
1534565055.65,18520,20.13,74502.3,5.83,5.11,5.11,0,*7D
1534565056.85,18521,20.13,74500.5,5.85,5.11,5.15,0,*7E
1534565058.02,18522,20.13,74500.0,5.83,5.11,5.15,0,*7B
1534565059.2,18523,20.13,74500.5,5.83,5.11,5.15,0,*7A
1534565060.4,18524,20.13,74500.5,5.85,5.11,5.15,0,*7B
1534565061.59,18525,20.13,74500.8,5.85,5.15,5.15,0,*7E
1534565062.77,18526,20.13,74498.8,5.83,5.15,5.15,0,*7B
1534565063.95,18527,20.13,74498.8,5.83,5.15,5.19,0,*76
1534565065.14,18528,20.13,74498.5,5.85,5.15,5.15,0,*73
1534565066.33,18529,20.19,74502.8,5.85,5.15,5.15,0,*72
1534565067.53,18530,20.13,74496.5,5.85,5.15,5.15,0,*7A
1534565068.72,18531,20.13,74498.3,5.85,5.15,5.15,0,*7B
1534565069.9,18532,20.13,74496.5,5.83,5.15,5.19,0,*72
1534565071.12,18533,20.13,74500.5,5.89,5.19,5.19,0,*75
1534565072.34,18534,20.19,74500.5,5.89,5.19,5.23,0,*7B
1534565073.54,18535,20.13,74500.5,5.89,5.19,5.29,0,*70
1534565074.74,18536,20.13,74498.3,5.85,5.15,5.15,0,*7C
1534565075.94,18537,20.13,74502.0,5.85,5.19,5.15,0,*71
1534565077.14,18538,20.13,74500.5,5.85,5.19,5.15,0,*7E
1534565078.34,18539,20.13,74502.5,5.85,5.19,5.19,0,*73
1534565079.55,18540,20.13,74502.3,5.85,5.19,5.19,0,*7D
1534565080.76,18541,20.13,74498.0,5.89,5.19,5.23,0,*79
1534565081.98,18542,20.13,74504.5,5.89,5.19,5.23,0,*7A
1534565083.18,18543,20.13,74496.3,5.91,5.23,5.23,0,*7B
1534565084.38,18544,20.13,74500.0,5.89,5.23,5.29,0,*7F
1534565085.58,18545,20.13,74500.0,5.89,5.23,5.29,0,*7E
1534565086.79,18546,20.13,74498.8,5.89,5.23,5.29,0,*7D
1534565088.0,18547,20.13,74502.0,5.91,5.23,5.27,0,*7B
1534565089.18,18548,20.13,74502.3,5.91,5.23,5.33,0,*71
1534565090.38,18549,20.13,74502.5,5.89,5.29,5.29,0,*78
1534565091.58,18550,20.13,74500.5,5.89,5.29,5.29,0,*70
1534565092.78,18551,20.13,74502.5,5.89,5.33,5.33,0,*71
1534565093.97,18552,20.13,74500.8,5.91,5.33,5.33,0,*7B
1534565095.16,18553,20.13,74498.5,5.91,5.23,5.33,0,*7B
1534565096.38,18554,20.13,74502.0,5.89,5.27,5.33,0,*71
1534565097.58,18555,20.13,74502.3,5.91,5.27,5.37,0,*7D
1534565098.79,18556,20.13,74500.3,5.91,5.33,5.27,0,*7A
1534565100.02,18557,20.13,74500.0,5.91,5.27,5.27,0,*7E
1534565101.22,18558,20.13,74502.5,5.91,5.27,5.33,0,*74
1534565102.41,18559,20.13,74500.0,5.91,5.33,5.33,0,*70
1534565103.6,18560,20.13,74502.8,5.91,5.33,5.33,0,*7A
1534565104.81,18561,20.13,74502.5,5.93,5.33,5.37,0,*7D
1534565105.99,18562,20.13,74500.0,5.91,5.33,5.37,0,*7C
1534565107.2,18563,20.13,74500.8,5.93,5.33,5.37,0,*7F
1534565108.38,18564,20.13,74502.5,5.91,5.33,5.37,0,*7A
1534565109.56,18565,20.13,74498.5,5.91,5.37,5.45,0,*7A
1534565110.74,18566,20.13,74500.0,5.91,5.33,5.37,0,*78
1534565111.93,18567,20.13,74500.8,5.91,5.33,5.33,0,*7D
1534565113.13,18568,20.13,74502.5,5.91,5.27,5.33,0,*77
1534565114.34,18569,20.13,74502.0,5.91,5.27,5.37,0,*72
1534565115.52,18570,20.13,74504.0,5.95,5.37,5.37,0,*7F
1534565116.73,18571,20.13,74504.5,5.93,5.33,5.33,0,*78
1534565117.94,18572,20.13,74500.8,5.93,5.33,5.37,0,*7F
1534565119.15,18573,20.13,74506.0,5.93,5.33,5.37,0,*7E
1534565120.36,18574,20.13,74502.8,5.93,5.33,5.45,0,*7C
1534565121.56,18575,20.13,74500.0,5.93,5.45,5.45,0,*7C
1534565122.74,18576,20.13,74500.3,5.95,5.49,5.49,0,*79
1534565123.94,18577,20.13,74500.0,5.93,5.45,5.49,0,*72
1534565125.14,18578,20.13,74504.0,5.93,5.45,5.37,0,*74
1534565126.35,18579,20.13,74506.8,5.93,5.49,5.45,0,*7C
1534565127.55,18580,20.13,74500.3,5.93,5.45,5.49,0,*7A
1534565128.78,18581,20.13,74500.3,5.95,5.51,5.51,0,*71
1534565129.99,18582,20.13,74500.5,5.93,5.45,5.45,0,*74
1534565131.19,18583,20.13,74502.5,5.93,5.45,5.45,0,*75
1534565132.39,18584,20.13,74506.3,5.93,5.49,5.45,0,*7E
1534565133.6,18585,20.13,74502.5,5.95,5.51,5.49,0,*7C
1534565134.78,18586,20.13,74500.5,5.95,5.49,5.49,0,*76
1534565135.98,18587,20.13,74500.3,5.93,5.37,5.37,0,*71
1534565137.17,18588,20.13,74500.5,5.95,5.41,5.41,0,*78
1534565138.35,18589,20.13,74502.0,5.95,5.41,5.41,0,*79
1534565139.53,18590,20.13,74506.0,5.95,5.41,5.41,0,*71
1534565140.71,18591,20.13,74504.5,5.95,5.29,5.37,0,*7F
1534565141.89,18592,20.13,74506.3,5.95,5.37,5.41,0,*72
1534565143.07,18593,20.13,74506.3,5.95,5.41,5.41,0,*72
1534565144.25,18594,20.13,74506.3,5.95,5.49,5.41,0,*7D
1534565145.43,18595,20.13,74504.5,5.95,5.49,5.37,0,*7D
1534565146.64,18596,20.13,74506.0,5.95,5.41,5.27,0,*77
1534565147.87,18597,20.13,74506.5,5.97,5.37,5.27,0,*75
1534565149.06,18598,20.13,74506.0,5.99,5.41,5.19,0,*78
1534565150.31,18599,20.13,74510.3,5.97,5.27,4.93,0,*74
1534565151.54,18600,20.13,74510.8,5.97,5.29,4.79,0,*7D
1534565152.76,18601,20.13,74506.8,5.97,5.27,4.49,0,*71
1534565153.97,18602,20.13,74506.3,5.97,5.11,4.23,0,*7B
1534565155.18,18603,20.13,74502.5,5.99,5.05,3.81,0,*7E
1534565156.45,18604,20.13,74504.5,5.97,4.71,3.37,0,*78
1534565157.68,18605,20.13,74508.0,5.97,4.45,2.77,0,*7B
1534565158.93,18606,20.13,74506.8,5.97,3.97,2.09,0,*79
1534565160.16,18607,20.13,74506.0,5.97,3.59,1.47,0,*73
1534565161.38,18608,20.13,74508.5,5.97,2.95,0.79,0,*41
1534565162.63,18609,20.13,74510.8,5.97,2.05,0.17,0,*41
1534565163.88,18610,20.13,74510.3,5.97,1.43,0.17,0,*48
1534565165.14,18611,20.13,74504.5,5.97,1.37,0.47,0,*4F
1534565166.37,18612,20.13,74504.3,5.97,0.97,0.47,0,*77
1534565167.62,18613,20.13,74506.0,5.97,0.29,0.37,0,*74
1534565168.86,18614,20.13,74508.8,5.97,-0.27,0.17,0,*52
1534565170.11,18615,20.19,74514.3,5.97,-0.93,0.17,0,*5C
1534565171.36,18616,20.13,74508.5,5.97,-0.27,0.67,0,*57
1534565172.54,18617,20.13,74508.5,5.97,0.01,0.97,0,*40
1534565173.76,18618,20.13,74510.5,5.97,-0.07,0.67,0,*6B
1534565175.0,18619,20.13,74506.8,5.97,-1.25,-0.27,0,*42
1534565176.26,18620,20.13,74508.0,5.97,-1.01,0.51,0,*62
1534565177.49,18621,20.13,74508.0,5.97,-1.25,0.67,0,*60
1534565178.73,18622,20.13,74508.8,5.97,-1.71,1.25,0,*55
1534565179.97,18623,20.13,74506.0,5.95,-1.99,2.21,0,*57
1534565181.22,18624,20.13,74508.8,5.95,-1.87,2.43,0,*5B
1534565182.44,18625,20.13,74508.3,5.93,-0.07,3.23,0,*52
1534565183.66,18626,20.13,74504.3,5.93,2.31,4.07,0,*7A
1534565184.84,18627,20.13,74506.0,5.95,3.63,4.57,0,*7E
1534565186.06,18628,20.13,74500.8,5.95,4.33,4.67,0,*70
1534565187.29,18629,20.13,74506.0,5.93,4.41,4.67,0,*72
1534565188.51,18630,20.13,74504.8,5.95,4.57,4.79,0,*74
1534565189.71,18631,20.13,74502.8,5.95,4.67,4.81,0,*71
1534565190.92,18632,20.13,74498.5,5.95,4.67,4.89,0,*7A
1534565192.13,18633,20.13,74490.3,5.95,4.79,4.89,0,*74
1534565193.34,18634,20.13,74480.5,5.95,4.81,4.93,0,*7F
1534565194.55,18635,20.13,74482.0,5.93,4.85,4.89,0,*77
1534565195.82,18636,20.13,74474.5,5.97,4.93,4.93,0,*7C
1534565197.08,18637,20.13,74470.0,5.97,4.93,5.01,0,*77
1534565198.32,18638,20.13,74470.8,5.97,5.01,4.89,0,*73
1534565199.53,18639,20.13,74472.3,5.95,5.01,4.89,0,*70
1534565200.74,18640,20.13,74468.5,5.95,4.93,4.81,0,*7C
1534565201.95,18641,20.13,74472.0,5.95,4.89,4.79,0,*71
1534565203.18,18642,20.13,74486.0,5.95,4.67,4.59,0,*70
1534565204.36,18643,20.13,74486.3,5.99,4.81,4.81,0,*70
1534565205.57,18644,20.13,74488.5,5.97,4.81,4.89,0,*71
1534565206.8,18645,20.13,74488.5,5.97,4.93,4.81,0,*7B
1534565208.04,18646,20.13,74494.5,5.99,4.97,4.63,0,*7E
1534565209.24,18647,20.13,74498.3,5.97,4.81,4.45,0,*72
1534565210.47,18648,20.13,74494.3,5.97,4.79,4.11,0,*7B
1534565211.68,18649,20.13,74498.3,5.99,4.63,3.89,0,*79
1534565212.9,18650,20.13,74496.5,5.99,4.53,3.45,0,*72
1534565214.13,18651,20.13,74496.5,5.97,4.19,2.89,0,*72
1534565215.36,18652,20.13,74498.0,5.97,3.79,2.35,0,*77
1534565216.58,18653,20.13,74500.8,5.97,3.53,2.31,0,*7A
1534565217.79,18654,20.13,74498.8,5.99,3.37,2.35,0,*75
1534565219.02,18655,20.13,74502.0,5.99,3.33,2.47,0,*75
1534565220.25,18656,20.13,74502.3,5.97,3.25,2.47,0,*7F
1534565221.49,18657,20.13,74496.8,5.97,3.29,2.43,0,*76
1534565222.75,18658,20.13,74500.8,5.97,3.19,2.43,0,*7A
1534565223.96,18659,20.13,74502.3,5.95,3.25,2.81,0,*78
1534565225.22,18660,20.13,74500.3,5.97,3.53,3.15,0,*7D
1534565226.45,18661,20.13,74502.3,5.97,3.63,3.07,0,*7C
1534565227.68,18662,20.13,74498.3,5.97,3.63,3.03,0,*7B
1534565228.91,18663,20.13,74498.5,5.97,3.53,2.91,0,*73
1534565230.13,18664,20.13,74500.5,5.97,3.53,2.91,0,*74
1534565231.38,18665,20.13,74500.0,5.97,3.49,2.69,0,*79
1534565232.62,18666,20.13,74498.3,5.99,3.33,2.51,0,*72
1534565233.83,18667,20.13,74488.8,5.99,3.29,2.47,0,*7F
1534565235.08,18668,20.13,74490.0,5.97,3.19,2.43,0,*79
1534565236.31,18669,20.13,74492.5,5.97,2.95,1.93,0,*73
1534565237.54,18670,20.13,74490.5,5.97,2.65,1.43,0,*79
1534565238.79,18671,20.13,74490.8,5.97,1.97,0.67,0,*41
1534565240.05,18672,20.13,74488.0,5.97,1.09,0.59,0,*48
1534565241.26,18673,20.13,74490.8,5.97,1.01,0.97,0,*43
1534565242.49,18674,20.13,74492.8,5.99,1.13,0.95,0,*4B
1534565243.75,18675,20.13,74494.5,5.97,1.09,1.09,0,*7B
1534565245.01,18676,20.13,74496.3,5.97,1.09,1.43,0,*76
1534565246.24,18677,20.13,74494.0,5.97,0.97,1.37,0,*42
1534565247.47,18678,20.13,74492.0,5.95,0.59,1.37,0,*4D
1534565248.69,18679,20.13,74492.0,5.95,0.59,1.63,0,*4D
1534565249.94,18680,20.13,74494.0,5.97,0.37,2.05,0,*42
1534565251.19,18681,20.13,74498.3,5.97,0.47,2.47,0,*42
1534565252.43,18682,20.13,74494.8,5.97,0.17,3.07,0,*41
1534565253.66,18683,20.13,74498.5,5.97,0.79,3.59,0,*43
1534565254.89,18684,20.13,74498.0,5.97,1.43,3.85,0,*7D
1534565256.1,18685,20.13,74494.8,5.95,2.05,3.89,0,*73
1534565257.31,18686,20.13,74498.0,5.97,2.35,3.89,0,*71
1534565258.54,18687,20.13,74498.5,5.97,2.17,3.85,0,*7C
1534565259.8,18688,20.13,74500.0,5.97,2.05,3.79,0,*73
1534565261.03,18689,20.13,74498.3,5.97,2.55,4.07,0,*79
1534565262.26,18690,20.13,74498.8,5.97,2.89,4.19,0,*7F
1534565263.5,18691,20.13,74492.5,5.97,3.03,4.33,0,*75
1534565264.71,18692,20.13,74498.8,5.97,3.29,4.45,0,*7F
1534565265.94,18693,20.13,74498.3,5.97,3.49,4.45,0,*78
1534565267.17,18694,20.13,74496.3,5.97,3.41,4.49,0,*7B
1534565268.41,18695,20.13,74498.8,5.95,3.41,4.31,0,*77
1534565269.62,18696,20.13,74496.5,5.95,3.49,4.33,0,*7E
1534565270.86,18697,20.13,74496.8,5.95,3.49,4.31,0,*7D
1534565272.07,18698,20.13,74502.5,5.95,3.41,4.23,0,*79
1534565273.25,18699,20.13,74498.5,5.95,3.59,4.45,0,*71
1534565274.49,18700,20.13,74498.0,5.93,3.71,4.45,0,*7C
1534565275.71,18701,20.13,74500.5,5.93,3.85,4.53,0,*71
1534565276.92,18702,20.13,74500.5,5.93,3.93,4.53,0,*75
1534565278.16,18703,20.13,74498.3,5.93,4.19,4.67,0,*76
1534565279.38,18704,20.13,74500.0,5.95,4.41,4.71,0,*7D
1534565280.56,18705,20.13,74502.3,5.95,4.57,4.81,0,*74
1534565281.74,18706,20.13,74498.3,5.95,4.57,4.89,0,*7F
1534565282.98,18707,20.13,74498.3,5.95,4.67,4.93,0,*76
1534565284.22,18708,20.13,74500.3,5.95,4.79,4.93,0,*76
1534565285.46,18709,20.13,74500.0,5.95,4.93,5.01,0,*79
1534565286.68,18710,20.13,74500.5,5.95,4.89,4.93,0,*70
1534565287.86,18711,20.13,74502.8,5.95,4.89,4.81,0,*72
1534565289.04,18712,20.13,74500.0,5.95,4.81,4.81,0,*79
1534565290.26,18713,20.13,74500.8,5.95,4.81,4.71,0,*77
1534565291.51,18714,20.13,74500.0,5.95,4.71,4.71,0,*7F
1534565292.74,18715,20.13,74502.5,5.95,4.67,4.67,0,*7E
1534565293.95,18716,20.13,74498.8,5.95,4.49,4.59,0,*7C
1534565295.16,18717,20.13,74502.5,5.97,4.19,4.57,0,*74
1534565296.37,18718,20.13,74506.3,5.97,4.07,4.57,0,*74
1534565297.63,18719,20.13,74504.8,5.97,4.01,4.59,0,*7D
1534565298.89,18720,20.13,74502.5,5.97,4.01,4.71,0,*7D
1534565300.12,18721,20.13,74500.0,5.97,4.01,4.81,0,*73
1534565301.36,18722,20.13,74498.3,5.97,4.11,4.93,0,*72
1534565302.59,18723,20.13,74498.8,5.97,4.33,5.05,0,*7D
1534565303.8,18724,20.13,74498.3,5.97,4.49,5.11,0,*72
1534565305.04,18725,20.13,74496.5,5.97,4.67,5.19,0,*77
1534565306.23,18726,20.13,74498.0,5.99,4.85,5.15,0,*7A
1534565307.44,18727,20.13,74496.5,5.97,5.11,5.23,0,*7C
1534565308.65,18728,20.13,74498.8,5.97,5.15,5.29,0,*7D
1534565309.88,18729,20.13,74498.8,5.97,5.23,5.27,0,*77
1534565311.13,18730,20.13,74496.0,5.97,5.27,5.27,0,*7B
1534565312.38,18731,20.13,74498.5,5.97,5.27,5.27,0,*7A
1534565313.6,18732,20.13,74498.0,5.97,5.27,5.29,0,*77
1534565314.8,18733,20.13,74496.3,5.97,5.29,5.29,0,*78
1534565316.0,18734,20.13,74498.3,5.97,5.29,5.37,0,*70
1534565317.19,18735,20.13,74498.3,5.99,5.33,5.33,0,*70
1534565318.36,18736,20.13,74500.5,5.99,5.29,5.29,0,*73
1534565319.61,18737,20.13,74502.3,5.97,5.27,5.27,0,*7C
1534565320.79,18738,20.13,74498.0,5.99,5.29,5.29,0,*7D
1534565321.99,18739,20.13,74496.5,5.97,5.29,5.29,0,*72
1534565323.19,18740,20.13,74498.3,5.97,5.29,5.29,0,*7C
1534565324.39,18741,20.13,74496.3,5.97,5.37,5.37,0,*7D
1534565325.59,18742,20.13,74496.3,5.97,5.37,5.37,0,*7E
1534565326.79,18743,20.13,74496.5,5.97,5.37,5.37,0,*7F
1534565328.0,18744,20.13,74496.5,5.97,5.37,5.41,0,*79